Track DEORBITSAIL now! 10-day predictions DEORBITSAIL is classified as:
1 40719U 15032E 25186.59927171 .00005266 00000-0 46082-3 0 9997 2 40719 97.6405 45.5978 0010087 305.2318 54.7960 14.97106172539275